Flag for Finland Weather past 2 weeks in Rovaniemi, Finland

Now
16 °F

Partly cloudy.


Feels Like: 7 °F
Forecast: 10 / 15 °F
Wind: 6 mph from Northeast

Location: Rovaniemi Airport

Current Time: Dec 22, 2014 at 11:19:21 AM

Latest Report: Dec 22, 2014 at 10:50 AM


Visibility: N/A

Pressure: 29.33 "Hg

Humidity: 86%

Dew point: 12 °F

Location of RovaniemiLocation

Historic Weather in Rovaniemi — Graph

°F

Rovaniemi temperature yesterday

Maximum temperature yesterday: 23 °F (at 2:20 PM)
Minimum temperature yesterday: 19 °F (at 12:20 AM)
Average temperature yesterday: 21 °F

Past Weeks' High & Low Weather Summary

 TemperatureHumidityPressure
High36 °F (Dec 8, 6:20 AM)100% (Dec 7, 10:20 AM)29.65 "Hg (Dec 7, 10:20 AM)
Low14 °F (Dec 22, 8:20 AM)87% (Dec 10, 9:50 AM)28.80 "Hg (Dec 20, 7:20 AM)
Average28 °F99%29.25 "Hg
* Reported Dec 7 10:20 AM — Dec 22 10:20 AM, Rovaniemi, Weather by CustomWeather, © 2014

Note: Actual official high and low records may vary slightly from our data, if they occured in-between our weather recording intervals... More about our weather records

Advertising

Rovaniemi weather history for previous 24 hours

 ConditionsComfort  
Time TempWeatherWind HumidityBarometerVisibility
10:20 AM
Dec 22
14 °FPassing clouds.7 mph92%29.33 "HgN/A
9:50 AM14 °FLight snow. Passing clouds.8 mph92%29.33 "HgN/A
9:20 AM14 °FSnow flurries. Partly cloudy.7 mph92%29.33 "HgN/A
8:50 AM14 °FPassing clouds.5 mph92%29.33 "HgN/A
8:20 AM14 °FPassing clouds.7 mph100%29.33 "HgN/A
7:50 AM16 °FPassing clouds.7 mph93%29.33 "HgN/A
7:20 AM16 °FClear.6 mph100%29.33 "Hg10 mi
6:50 AM18 °FPassing clouds.7 mph93%29.33 "HgN/A
6:20 AM18 °FClear.8 mph100%29.33 "Hg10 mi
5:50 AM19 °FClear.8 mph93%29.33 "Hg10 mi
5:20 AM21 °FPassing clouds.8 mph93%29.33 "HgN/A
4:50 AM23 °FPassing clouds.10 mph93%29.33 "HgN/A
4:20 AM23 °FPassing clouds.9 mph93%29.36 "HgN/A
3:50 AM23 °FOvercast.9 mph100%29.33 "HgN/A
3:20 AM23 °FMostly cloudy.10 mph100%29.33 "HgN/A
2:50 AM23 °FMostly cloudy.12 mph100%29.36 "HgN/A
2:20 AM23 °FMostly cloudy.10 mph100%29.36 "HgN/A
1:50 AM23 °FMostly cloudy.13 mph100%29.33 "HgN/A
1:20 AM23 °FMostly cloudy.15 mph100%29.33 "HgN/A
12:50 AM23 °FMostly cloudy.13 mph100%29.36 "HgN/A
12:20 AM23 °FLow clouds.10 mph100%29.33 "HgN/A
11:20 PM
Dec 21
23 °FMostly cloudy.15 mph100%29.33 "HgN/A
10:50 PM23 °FPartly cloudy.17 mph93%29.33 "HgN/A
10:20 PM23 °FPartly cloudy.17 mph93%29.33 "HgN/A
9:50 PM23 °FPassing clouds.17 mph93%29.33 "HgN/A
9:20 PM23 °FPartly cloudy.15 mph93%29.33 "HgN/A
8:50 PM23 °FLow clouds.13 mph93%29.33 "HgN/A
8:20 PM23 °FLow clouds.13 mph93%29.33 "HgN/A
7:50 PM23 °FOvercast.13 mph100%29.30 "HgN/A
7:20 PM23 °FPassing clouds.13 mph100%29.30 "HgN/A
6:50 PM23 °FClear.14 mph93%29.30 "Hg10 mi
6:20 PM23 °FClear.13 mph93%29.30 "Hg10 mi
5:50 PM23 °FMostly cloudy.9 mph93%29.30 "HgN/A
5:20 PM23 °FOvercast.10 mph93%29.27 "HgN/A
4:50 PM23 °FLow clouds.9 mph93%29.27 "HgN/A
4:20 PM23 °FLow clouds.10 mph93%29.27 "HgN/A
3:50 PM23 °FLow clouds.9 mph93%29.27 "HgN/A
3:20 PM23 °FMostly cloudy.10 mph93%29.24 "HgN/A
2:50 PM23 °FOvercast.10 mph93%29.24 "HgN/A
2:20 PM23 °FOvercast.12 mph93%29.24 "HgN/A
1:50 PM21 °FOvercast.12 mph100%29.21 "HgN/A
1:20 PM21 °FSnow flurries. Overcast.13 mph100%29.21 "HgN/A
12:50 PM21 °FPartly sunny.10 mph100%29.21 "HgN/A
12:20 PM21 °FSnow flurries. Partly sunny.13 mph100%29.21 "HgN/A
11:50 AM21 °FPartly sunny.14 mph100%29.18 "HgN/A
11:20 AM21 °FBroken clouds.13 mph100%29.18 "HgN/A
Weather by CustomWeather, © 2014

See weather overviewHow to use our weather pages